BREEZE-M DEB, 43401

Orbit data source: Space-Track

BREEZE-M DEB, 43401 is space debris in HEO originally from a launch on Thu, 17 May 2012 UTC launched from the Tyuratam Missile And Space Complex (TTMTR). Debris objects in space refer to the collection of defunct objects orbiting the Earth. Examples of debris include non-operational satellites, rocket bodies, and fragments generated from explosions, collisions, or faulty payload assembly.

Loading next visibility...
Identifier
43401, 2012-026N
Orbit
HEO
Country
Flag of CISCIS
Related business
Manufacturer
Khrunichev
Mission
Spacecraft
Bus & Motor
Unknown
Mass
Unknown
Launch date (UTC)
2012-05-17 (14 years ago)
Launch vehicle
Unknown
Launch site
Tyuratam Missile And Space Complex (TTMTR)
Object type
Payload
Rocket body
Debris
Shape & HBR
Unknown shape, 1.1 m
Radar Cross Section
RCS unknown

Expand to show TLE details & history
Last TLE update: 2 weeks ago

TLE from 2 weeks ago
0 BREEZE-M DEB
1 43401U 12026N   25344.25471073 -.00000051  00000-0  00000+0 0  9996
2 43401   9.6274 156.7515 4080255   6.7951 226.5452  1.75796859 85527
Epoch: 2025-12-10T06:06Z
TLE epoch observation values (Epoch: 2025-12-10T06:06:47.007Z)
Latitude
-4.64504°
Longitude
-165.52055°
Altitude
32,452.074 km
Speed
2.605 km/s
True Right ascension
00h 21m 36s
True Declination
-4° 38' 24"
Sunlit
Object was in daylight at epoch
Visualization orbit readout
Latitude
Unknown
Longitude
Unknown
Altitude
Unknown
Speed
Unknown
Apparent Right ascension
Unknown
Apparent Declination
Unknown
Sunlit
N/A
Visualization observer readout
Local Sidereal Time
20:26:04
Azimuth
Unknown
Elevation
Unknown
Doppler factor
Unknown
Orbital elements
Apogee altitude
34,456.985 km
Perigee altitude
10,790.125 km
Semi-major axis
29,001.692 km
Eccentricity
0.40803
Inclination
9.6274°
RAAN
156.7515°
Arg. of periapsis
6.7951°
True anomaly
202.15689°
Mean anomaly
226.5452°
Eccentric anomaly
213.60592°
Mean motion
0.43945 °/min
Orbital period
819.21 mins
BSTAR
0
Loading maneuver chart data...
Computing Atmospheric mass density...
Loading historical data...
Loading historical data...
Loading historical data...
Loading historical data...
Loading historical data...
Loading historical data...
Loading historical data...

Documentation

Showing up to 5 results
|